Location: Unspecified
(51.0000°N, 12.0000°E)
Time: 11:23:06
(UTC+02:00)

OTV 5 (USA 277) - Pass Details

Date: 24 April 2019
Orbit: 310 x 325 km, 54.5° (Epoch: 08 May)

Event Time Altitude Azimuth Distance (km) Brightness Sun altitude
Rises 21:36:11 0° 218° (SW) 2,028 ? -11.0°
Reaches altitude 10° 21:38:15 10° 207° (SSW) 1,202 ? -11.2°
Maximum altitude 21:40:37 28° 144° (SE) 618 ? -11.5°
Enters shadow 21:41:40 21° 103° (ESE) 771 ? -11.7°
